{"data":{"norad_id":64266,"intl_designator":"2025-120L","name":"STARLINK-34315","alt_names":[],"object_type":"PAYLOAD","status":"ACTIVE","operator":null,"country":"US","launch_date":"2025-06-04","launch_site_code":"AFWTR","launch_vehicle":null,"mission":null,"orbit_class":"UNKNOWN","rcs_meters":null,"size_class":null,"mass_kg":null,"dimensions":null,"purposes":["comms"],"wikipedia_slug":null,"has_3d_model":false,"image_url":null,"decayed_at":null,"tle_current":{"epoch":"2026-05-25T02:37:15.008736Z","epoch_age_seconds":69105,"freshness":"FRESH","line1":"1 64266U 25120L   26145.10920149  .00013470  00000+0  46593-3 0  9992","line2":"2 64266  53.1585 121.9171 0001617 130.1407 229.9736 15.30210785 55556","mean_motion":15.30210785,"eccentricity":0.0001617,"inclination_deg":53.1585,"raan_deg":121.9171,"arg_perigee_deg":130.1407,"mean_anomaly_deg":229.9736,"bstar":0.00046593,"rev_number":5555,"period_min":94.104682447392,"perigee_km":474.07468571989,"apogee_km":476.29104936505,"semimajor_km":6853.3198675425,"source":"CELESTRAK","updated_at":"2026-05-25T13:38:20.359075Z"}}}